GW6637 Weather Reports


time (UTC)temp
F
wind
direction
speed
knots
gust
knots
rain 1hr
in
rain 24hr
in
rain mn
in
humidity
%
barometer
mb
20260508063348 41 118 0.0 0.0 0.00 0.00 0.00 92 1016.2
20260508062845 41 118 0.0 0.0 0.00 0.00 0.00 91 1016.2
20260508062343 42 118 0.0 0.0 0.00 0.00 0.00 91 1016.0
20260508061839 42 119 0.0 0.9 0.00 0.00 0.00 91 1015.9
20260508061337 42 118 0.0 0.0 0.00 0.00 0.00 91 1016.1
20260508060833 42 118 0.0 0.0 0.00 0.00 0.00 90 1016.1
20260508060331 42 119 0.0 0.0 0.00 0.00 0.00 90 1016.0
20260508055826 42 119 0.0 0.0 0.00 0.00 0.00 90 1016.1
20260508055324 42 119 0.0 0.0 0.00 0.00 0.00 90 1015.9
20260508054820 43 118 0.0 0.0 0.00 0.00 0.00 89 1016.0
20260508054318 43 119 0.0 0.0 0.00 0.00 0.00 89 1015.9
20260508053814 43 119 0.0 0.0 0.00 0.00 0.00 89 1015.9
20260508053312 43 119 0.0 0.9 0.00 0.00 0.00 89 1015.8
20260508052809 43 118 0.0 0.0 0.00 0.00 0.00 88 1015.5
20260508052307 43 118 0.0 0.0 0.00 0.00 0.00 87 1015.4
20260508051802 43 118 0.0 0.0 0.00 0.00 0.00 87 1015.5
20260508051257 44 118 0.0 0.0 0.00 0.00 0.00 87 1015.4
20260508050754 44 118 0.0 0.0 0.00 0.00 0.00 86 1015.4
20260508050252 44 119 0.0 0.0 0.00 0.00 0.00 86 1015.3
20260508045747 44 119 0.0 0.0 0.00 0.00 0.00 86 1015.0
20260508045245 44 109 0.0 0.0 0.00 0.00 0.00 86 1015.0
20260508044742 44 108 0.0 0.0 0.00 0.00 0.00 85 1014.9
20260508044239 44 108 0.0 0.0 0.00 0.00 0.00 85 1015.0
20260508043735 45 108 0.0 0.0 0.00 0.00 0.00 86 1015.0
20260508043233 45 108 0.0 0.0 0.00 0.00 0.00 85 1014.9
20260508042729 45 108 0.0 0.0 0.00 0.00 0.00 85 1014.9
20260508042226 45 108 0.0 0.0 0.00 0.00 0.00 84 1014.9
20260508041723 46 106 0.0 0.0 0.00 0.00 0.00 83 1014.8
20260508041220 46 126 0.0 0.0 0.00 0.00 0.00 83 1014.9
20260508040716 46 126 0.0 0.0 0.00 0.00 0.00 82 1014.7
20260508040214 46 126 0.0 0.0 0.00 0.00 0.00 81 1014.8
20260508035711 46 126 0.0 0.0 0.00 0.00 0.00 81 1014.5
20260508035208 47 133 0.0 0.9 0.00 0.00 0.00 80 1014.5
20260508034704 47 121 0.0 0.9 0.00 0.00 0.00 79 1014.6
20260508034202 47 120 0.0 0.9 0.00 0.00 0.00 79 1014.5
20260508033659 48 120 0.0 0.0 0.00 0.00 0.00 78 1014.7
20260508033157 48 120 0.0 0.9 0.00 0.00 0.00 78 1014.9
20260508032654 48 120 0.0 0.0 0.00 0.00 0.00 78 1014.7
20260508032151 48 100 0.9 0.9 0.00 0.00 0.00 78 1014.7
20260508031648 48 93 0.0 0.0 0.00 0.00 0.00 77 1014.3
20260508031144 48 93 0.0 0.0 0.00 0.00 0.00 76 1014.3
20260508030641 48 93 0.0 0.0 0.00 0.00 0.00 77 1014.1
20260508030139 49 93 0.0 0.0 0.00 0.00 0.00 75 1014.3
20260508025634 49 79 0.0 0.0 0.00 0.00 0.00 75 1014.4
20260508025132 49 93 0.0 0.0 0.00 0.00 0.00 74 1014.2
20260508024627 50 93 0.0 0.0 0.00 0.00 0.00 73 1014.1
20260508024125 50 93 0.0 0.0 0.00 0.00 0.00 71 1014.0
20260508023621 50 94 0.0 0.9 0.00 0.00 0.00 72 1014.1
20260508023119 51 94 0.0 0.0 0.00 0.00 0.00 71 1014.0
20260508022614 51 94 0.0 0.0 0.00 0.00 0.00 69 1014.0
20260508022112 52 94 0.0 0.0 0.00 0.00 0.00 68 1013.8
20260508021607 52 94 0.0 0.0 0.00 0.00 0.00 68 1013.6
20260508021103 53 94 0.0 0.0 0.00 0.00 0.00 65 1013.8
20260508020601 53 94 0.0 0.0 0.00 0.00 0.00 64 1013.6
20260508020059 53 93 0.0 0.0 0.00 0.00 0.00 62 1013.6
20260508015556 53 93 0.0 0.0 0.00 0.00 0.00 61 1013.1
20260508015053 54 93 0.0 0.0 0.00 0.00 0.00 61 1013.3
20260508014549 53 92 0.0 0.0 0.00 0.00 0.00 63 1013.0
20260508014045 53 80 0.0 0.9 0.00 0.00 0.00 65 1012.9
20260508013541 53 82 0.0 0.0 0.00 0.00 0.00 68 1013.0
20260508013039 53 78 0.9 1.7 0.00 0.00 0.00 66 1013.0
20260508012536 53 105 0.0 0.9 0.00 0.00 0.00 65 1013.0
20260508012034 53 103 0.0 0.0 0.00 0.00 0.00 65 1012.8
20260508011532 54 103 0.0 0.9 0.00 0.00 0.00 64 1012.6
20260508011029 54 109 0.0 0.9 0.00 0.00 0.00 63 1012.6
20260508010525 54 105 0.0 0.0 0.00 0.00 0.00 63 1012.5
20260508010023 55 106 0.0 0.0 0.00 0.00 0.00 62 1012.3
20260508005519 56 103 0.9 0.9 0.00 0.00 0.00 59 1012.4
20260508005016 56 157 0.0 0.0 0.00 0.00 0.00 58 1012.3
20260508004513 57 157 0.0 0.0 0.00 0.00 0.00 55 1012.3
20260508004009 57 158 0.0 0.0 0.00 0.00 0.00 53 1012.4
20260508003505 57 150 0.0 0.9 0.00 0.00 0.00 56 1012.6
20260508003003 57 123 0.0 0.0 0.00 0.00 0.00 55 1012.5
20260508002459 58 125 0.0 0.0 0.00 0.00 0.00 56 1012.4
20260508001955 58 137 0.0 0.0 0.00 0.00 0.00 54 1012.3
20260508001452 59 138 0.0 0.0 0.00 0.00 0.00 52 1012.4
20260508000948 60 155 0.0 0.0 0.00 0.00 0.00 50 1012.2
20260508000444 60 182 0.9 0.9 0.00 0.00 0.00 47 1012.0
20260507235941 60 149 0.0 0.9 0.00 0.00 0.00 47 1011.9
20260507235438 61 95 0.9 0.9 0.00 0.00 0.00 48 1012.0
20260507234936 61 172 0.9 1.7 0.00 0.00 0.00 47 1011.9
20260507234432 61 164 0.0 0.0 0.00 0.00 0.00 48 1011.7
20260507233929 61 278 1.7 1.7 0.00 0.00 0.00 46 1011.8
20260507233426 62 78 0.9 0.9 0.00 0.00 0.00 45 1011.8
20260507232924 61 271 1.7 2.6 0.00 0.00 0.00 47 1011.7
20260507232420 62 84 0.0 0.0 0.00 0.00 0.00 48 1011.5
20260507231918 62 212 1.7 1.7 0.00 0.00 0.00 45 1011.5
20260507231414 62 249 1.7 1.7 0.00 0.00 0.00 46 1011.6
20260507230910 63 283 1.7 1.7 0.00 0.00 0.00 46 1011.2
20260507230408 63 272 1.7 2.6 0.00 0.00 0.00 45 1011.2
20260507225908 63 324 1.7 2.6 0.00 0.00 0.00 44 1011.3
20260507225404 64 312 3.5 3.5 0.00 0.00 0.00 44 1011.1
20260507224900 65 191 0.9 0.9 0.00 0.00 0.00 44 1011.2
20260507224357 65 285 1.7 2.6 0.00 0.00 0.00 42 1011.2
20260507223853 64 291 1.7 2.6 0.00 0.00 0.00 42 1011.0
20260507223350 64 277 2.6 3.5 0.00 0.00 0.00 43 1011.0
20260507222847 63 283 2.6 2.6 0.00 0.00 0.00 44 1011.2
20260507222343 63 349 4.3 7.8 0.00 0.00 0.00 44 1010.8
20260507221840 63 331 4.3 6.1 0.00 0.00 0.00 45 1010.9
20260507221337 64 253 3.5 5.2 0.00 0.00 0.00 45 1010.7
20260507220833 65 289 0.9 0.9 0.00 0.00 0.00 46 1010.8
20260507220332 66 307 1.7 2.6 0.00 0.00 0.00 43 1010.8
20260507215828 66 294 4.3 5.2 0.00 0.00 0.00 43 1010.6
20260507215325 66 305 2.6 3.5 0.00 0.00 0.00 42 1010.7
20260507214822 66 239 0.9 1.7 0.00 0.00 0.00 46 1010.6
20260507214320 66 310 4.3 6.1 0.00 0.00 0.00 45 1010.6
20260507213819 65 3 2.6 3.5 0.00 0.00 0.00 46 1010.5
20260507213317 64 283 0.0 0.0 0.00 0.00 0.00 49 1010.6
20260507212814 65 264 3.5 6.1 0.00 0.00 0.00 45 1010.4
20260507212310 66 256 2.6 3.5 0.00 0.00 0.00 44 1010.5
20260507211806 65 330 2.6 3.5 0.00 0.00 0.00 50 1010.5
20260507211303 64 248 1.7 1.7 0.00 0.00 0.00 57 1010.5
20260507210800 64 278 1.7 1.7 0.00 0.00 0.00 57 1010.5
20260507210256 64 272 1.7 1.7 0.00 0.00 0.00 55 1010.3
20260507205753 65 302 0.9 0.9 0.00 0.00 0.00 56 1010.2
20260507205250 65 196 0.9 0.9 0.00 0.00 0.00 55 1010.3
20260507204746 64 289 1.7 1.7 0.00 0.00 0.00 57 1010.2
20260507204244 63 198 2.6 3.5 0.00 0.00 0.00 59 1010.2
20260507203742 63 170 0.9 0.9 0.00 0.00 0.00 60 1010.2
20260507203239 63 159 0.9 0.9 0.00 0.00 0.00 59 1010.3
20260507202735 64 244 1.7 1.7 0.00 0.00 0.00 58 1010.4
20260507202231 65 188 1.7 1.7 0.00 0.00 0.00 59 1010.3
20260507201726 65 191 1.7 2.6 0.00 0.00 0.00 55 1010.3
20260507201223 64 170 0.9 1.7 0.00 0.00 0.00 54 1010.5
20260507200720 65 229 2.6 2.6 0.00 0.00 0.00 56 1010.4
20260507200216 65 237 2.6 2.6 0.00 0.00 0.00 58 1010.5
20260507195712 63 199 0.9 0.9 0.00 0.00 0.00 58 1010.6
20260507195209 63 257 1.7 2.6 0.00 0.00 0.00 59 1010.7
20260507194706 62 157 0.0 0.9 0.00 0.00 0.00 59 1010.8
20260507194202 62 276 3.5 5.2 0.00 0.00 0.00 59 1011.0
20260507193659 61 197 1.7 1.7 0.00 0.00 0.00 63 1011.1
20260507193156 62 42 1.7 1.7 0.00 0.00 0.00 59 1011.2
20260507192652 62 287 1.7 1.7 0.00 0.00 0.00 59 1011.4
20260507192149 61 268 1.7 1.7 0.00 0.00 0.00 60 1011.5
20260507191645 61 221 1.7 1.7 0.00 0.00 0.00 61 1011.3
20260507191142 62 187 0.9 0.9 0.00 0.00 0.00 62 1011.4
20260507190639 61 158 0.0 0.9 0.00 0.00 0.00 61 1011.4
20260507190138 60 158 0.0 0.0 0.00 0.00 0.00 62 1011.5
20260507185636 60 185 0.9 0.9 0.00 0.00 0.00 64 1011.7
20260507185132 60 185 0.9 1.7 0.00 0.00 0.00 64 1011.9
20260507184630 60 118 0.0 0.0 0.00 0.00 0.00 66 1011.9
20260507184128 60 261 2.6 3.5 0.00 0.00 0.00 66 1012.0
20260507183624 59 172 0.9 1.7 0.00 0.00 0.00 69 1011.9
20260507183121 59 192 0.9 1.7 0.00 0.00 0.00 68 1012.0
20260507182617 59 325 0.9 0.9 0.00 0.00 0.00 71 1012.0
20260507182113 60 63 1.7 1.7 0.00 0.00 0.00 69 1011.8
20260507181610 60 111 0.0 0.9 0.00 0.00 0.00 70 1011.9
20260507181106 60 83 0.0 0.9 0.00 0.00 0.00 70 1011.8
20260507180603 60 99 0.0 0.0 0.00 0.00 0.00 68 1011.8
20260507180100 60 111 0.0 0.9 0.00 0.00 0.00 68 1011.9
20260507175556 60 109 0.0 0.9 0.00 0.00 0.00 69 1012.0
20260507175053 59 89 0.0 0.9 0.00 0.00 0.00 71 1011.6
20260507174550 59 95 0.9 0.9 0.00 0.00 0.00 69 1011.9
20260507174048 59 32 1.7 2.6 0.00 0.00 0.00 68 1012.0
20260507173545 59 52 2.6 3.5 0.00 0.00 0.00 69 1011.8
20260507173042 59 70 0.0 0.0 0.00 0.00 0.00 70 1012.0
20260507172538 59 87 0.0 0.9 0.00 0.00 0.00 70 1011.9
20260507172035 59 79 0.0 0.0 0.00 0.00 0.00 71 1012.0
20260507171530 59 54 0.9 0.9 0.00 0.00 0.00 71 1012.1
20260507171028 59 88 0.9 0.9 0.00 0.00 0.00 71 1012.2
20260507170524 59 114 0.0 0.0 0.00 0.00 0.00 74 1012.1
20260507170021 58 95 0.0 0.9 0.00 0.00 0.00 72 1011.9
20260507165517 58 55 0.9 0.9 0.00 0.00 0.00 71 1012.1
20260507165014 58 34 0.9 0.9 0.00 0.00 0.00 71 1012.1
20260507164510 58 272 0.0 0.0 0.00 0.00 0.00 72 1012.3
20260507164007 59 13 1.7 2.6 0.00 0.00 0.00 71 1012.1
20260507163504 59 356 0.9 1.7 0.00 0.00 0.00 71 1012.1
20260507163002 59 70 0.9 1.7 0.00 0.00 0.00 71 1012.1
20260507162457 60 66 0.0 0.9 0.00 0.00 0.00 72 1012.1
20260507161954 59 75 0.0 0.0 0.00 0.00 0.00 71 1011.9
20260507161450 59 81 0.9 0.9 0.00 0.00 0.00 71 1011.8
20260507160947 59 76 1.7 1.7 0.00 0.00 0.00 69 1011.9
20260507160443 59 66 0.9 1.7 0.00 0.00 0.00 71 1012.2
20260507155939 60 35 0.9 1.7 0.00 0.00 0.00 70 1012.1
20260507155435 60 84 0.0 0.0 0.00 0.00 0.00 70 1012.2
20260507154932 59 73 0.0 0.9 0.00 0.00 0.00 70 1012.2
20260507154429 59 74 0.9 0.9 0.00 0.00 0.00 70 1012.2
20260507153926 59 103 0.9 1.7 0.00 0.00 0.00 70 1012.4
20260507153423 59 23 1.7 1.7 0.00 0.00 0.00 69 1012.7
20260507152919 59 9 0.9 1.7 0.00 0.00 0.00 70 1012.4
20260507152415 59 43 0.9 0.9 0.00 0.00 0.00 70 1012.5
20260507151911 60 338 0.0 0.0 0.00 0.00 0.00 69 1012.4
20260507151408 60 60 0.0 0.0 0.00 0.00 0.00 69 1012.3
20260507150905 60 335 1.7 2.6 0.00 0.00 0.00 70 1012.4
20260507150402 60 114 0.0 0.9 0.00 0.00 0.00 71 1012.3
20260507145858 60 27 1.7 1.7 0.00 0.00 0.00 71 1012.2
20260507145354 60 338 3.5 5.2 0.00 0.00 0.00 71 1012.3
20260507144851 60 88 0.0 0.9 0.00 0.00 0.00 71 1012.3
20260507144348 60 91 0.9 0.9 0.00 0.00 0.00 73 1012.1
20260507143845 60 93 0.0 0.0 0.00 0.00 0.00 72 1012.1
20260507143343 60 108 0.9 0.9 0.00 0.00 0.00 72 1012.1
20260507142839 60 117 0.9 0.9 0.00 0.00 0.00 71 1012.1
20260507142335 60 82 0.9 0.9 0.00 0.00 0.00 72 1012.0
20260507141832 61 112 0.9 0.9 0.00 0.00 0.00 71 1012.2
20260507141328 61 64 0.9 0.9 0.00 0.00 0.00 72 1012.1
20260507140825 61 54 0.9 0.9 0.00 0.00 0.00 70 1012.1
20260507140322 61 6 1.7 1.7 0.00 0.00 0.00 70 1012.0
20260507135820 61 141 0.0 0.9 0.00 0.00 0.00 72 1011.7
20260507135316 61 79 0.0 0.9 0.00 0.00 0.00 71 1012.0
20260507134814 61 43 1.7 1.7 0.00 0.00 0.00 72 1012.2
20260507134309 61 339 1.7 2.6 0.00 0.00 0.00 71 1012.4
20260507133805 61 26 0.0 0.9 0.00 0.00 0.00 72 1012.4
20260507133302 61 86 0.0 0.9 0.00 0.00 0.00 72 1012.3
20260507132800 61 89 0.0 0.0 0.00 0.00 0.00 72 1012.5
20260507132256 61 341 1.7 2.6 0.00 0.00 0.00 72 1012.3
20260507131753 61 345 2.6 2.6 0.00 0.00 0.00 72 1012.4
20260507131250 61 56 1.7 1.7 0.00 0.00 0.00 72 1012.5
20260507130747 61 54 0.9 0.9 0.00 0.00 0.00 73 1012.6
20260507130244 61 82 0.9 0.9 0.00 0.00 0.00 74 1012.5
20260507125743 61 54 0.9 0.9 0.00 0.00 0.00 74 1012.2
20260507125240 61 84 0.0 0.0 0.00 0.00 0.00 75 1012.3
20260507124737 61 84 0.0 0.0 0.00 0.00 0.00 74 1012.2
20260507124233 61 85 0.0 0.0 0.00 0.00 0.00 73 1012.3
20260507123732 61 84 0.0 0.9 0.00 0.00 0.00 74 1012.2
20260507123229 61 57 0.9 1.7 0.00 0.00 0.00 73 1012.5
20260507122724 61 48 0.9 0.9 0.00 0.00 0.00 74 1012.3
20260507122220 60 60 0.0 0.0 0.00 0.00 0.00 76 1012.4
20260507121716 60 28 1.7 1.7 0.00 0.00 0.00 75 1012.3
20260507121212 60 34 0.9 0.9 0.00 0.00 0.00 74 1012.3
20260507120709 60 81 0.0 0.0 0.00 0.00 0.00 76 1012.3
20260507120206 60 59 0.0 0.9 0.00 0.00 0.00 75 1012.5
20260507115702 61 108 0.9 0.9 0.00 0.00 0.00 78 1012.2
20260507115158 60 107 0.9 0.9 0.00 0.00 0.00 76 1012.3
20260507114653 60 108 0.0 0.0 0.00 0.00 0.00 78 1012.2
20260507114151 60 108 0.0 0.0 0.00 0.00 0.00 78 1012.3
20260507113648 60 108 0.0 0.0 0.00 0.00 0.00 77 1012.2
20260507113145 60 108 0.0 0.0 0.00 0.00 0.00 76 1012.3
20260507112643 60 109 0.0 0.0 0.00 0.00 0.00 79 1012.1
20260507112139 60 85 0.0 0.0 0.00 0.00 0.00 77 1011.8
20260507111637 59 85 0.0 0.0 0.00 0.00 0.00 78 1011.9
20260507111133 59 85 0.0 0.0 0.00 0.00 0.00 79 1011.9
20260507110629 59 85 0.0 0.0 0.00 0.00 0.00 81 1011.5
20260507110126 59 84 0.0 0.0 0.00 0.00 0.00 81 1011.3
20260507105623 59 84 0.0 0.0 0.00 0.00 0.00 80 1011.6
20260507105119 59 84 0.0 0.0 0.00 0.00 0.00 81 1011.5
20260507104617 60 94 0.0 0.0 0.00 0.00 0.00 81 1011.2
20260507104113 60 94 0.0 0.0 0.00 0.00 0.00 81 1011.5
20260507103609 60 93 0.0 0.9 0.00 0.00 0.00 79 1011.5
20260507103106 60 95 0.0 0.0 0.00 0.00 0.00 81 1011.5
20260507102602 60 96 0.0 0.0 0.00 0.00 0.00 81 1011.5
20260507102059 60 95 0.0 0.0 0.00 0.00 0.00 80 1011.3
20260507101554 60 129 0.0 0.0 0.00 0.00 0.00 82 1011.5
20260507101051 60 116 0.0 0.0 0.00 0.00 0.00 82 1011.4
20260507100548 60 89 0.0 0.0 0.00 0.00 0.00 83 1011.5
20260507100046 59 90 0.0 0.0 0.00 0.00 0.00 83 1011.2
20260507095544 59 97 0.0 0.0 0.00 0.00 0.00 85 1011.4
20260507095040 60 98 0.0 0.0 0.00 0.00 0.00 85 1011.6
20260507094536 60 98 0.0 0.0 0.00 0.00 0.00 85 1011.7
20260507094033 60 98 0.0 0.9 0.00 0.00 0.00 85 1011.8
20260507093531 60 98 0.0 0.9 0.00 0.00 0.00 83 1011.7
20260507093029 60 97 0.0 0.0 0.00 0.00 0.00 82 1011.2
20260507092525 60 97 0.0 0.0 0.00 0.00 0.00 82 1011.6
20260507092022 60 97 0.0 0.0 0.00 0.00 0.00 83 1011.4
20260507091519 60 92 0.9 0.9 0.00 0.00 0.00 82 1011.7
20260507091015 60 73 0.9 0.9 0.00 0.00 0.00 82 1011.2
20260507090511 60 147 0.9 0.9 0.00 0.00 0.00 82 1011.3
20260507090008 61 104 0.0 0.0 0.00 0.00 0.00 81 1010.6
20260507085505 61 117 0.0 0.0 0.00 0.00 0.00 81 1010.8
20260507085001 60 87 0.9 0.9 0.00 0.00 0.00 82 1011.0
20260507084458 61 80 0.0 0.9 0.00 0.00 0.00 83 1011.1
20260507083955 60 73 0.0 0.0 0.00 0.00 0.00 84 1011.3
20260507083452 61 96 0.9 0.9 0.00 0.00 0.00 85 1011.3
20260507082948 61 109 0.0 0.0 0.00 0.00 0.00 85 1011.4
20260507082444 61 113 0.0 0.0 0.00 0.00 0.00 85 1011.4
20260507081941 61 115 0.0 0.9 0.00 0.00 0.00 86 1011.2
20260507081437 61 124 0.0 0.0 0.00 0.00 0.00 86 1011.1
20260507080935 61 91 0.0 0.0 0.00 0.00 0.00 86 1011.2
20260507080430 61 91 0.9 0.9 0.00 0.00 0.00 88 1011.2
20260507075926 61 127 0.0 0.9 0.00 0.00 0.00 88 1011.4
20260507075422 62 125 0.0 0.0 0.00 0.00 0.00 86 1011.1
20260507074919 62 158 0.0 0.0 0.00 0.00 0.00 85 1011.2
20260507074416 62 158 0.0 0.0 0.00 0.00 0.00 85 1011.2
20260507073914 62 159 0.0 0.0 0.00 0.00 0.00 85 1011.4
20260507073410 62 159 0.0 0.0 0.00 0.00 0.00 82 1011.5
20260507072907 62 94 0.9 0.9 0.00 0.00 0.00 85 1011.2
20260507072404 62 93 0.0 0.0 0.00 0.00 0.00 87 1011.3
20260507071902 62 105 0.0 0.0 0.00 0.00 0.00 88 1010.9
20260507071359 62 104 0.0 0.0 0.00 0.00 0.00 88 1011.1
20260507070855 62 102 0.0 0.0 0.00 0.00 0.00 88 1011.2
20260507070353 62 88 0.0 0.9 0.00 0.00 0.00 87 1011.2
20260507065849 62 93 0.9 0.9 0.00 0.00 0.00 89 1010.9
20260507065346 63 127 0.9 1.7 0.00 0.00 0.00 92 1010.8
20260507064843 63 103 0.0 0.9 0.00 0.00 0.00 93 1011.1
20260507064341 63 104 0.0 0.0 0.00 0.00 0.00 93 1010.7
20260507063839 63 104 0.0 0.0 0.00 0.00 0.00 93 1011.2